Tracking 18980 objects as of 20-Feb-2018
HD Live streaming from Space Station
objects crossing your sky now

FENGYUN 1C DEB

Track FENGYUN 1C DEB now!
10-day predictions


NORAD ID: 30073
Int'l Code: 1999-025QA
Perigee: 836.9 km
Apogee: 929.1 km
Inclination: 99.4 °
Period: 102.5 minutes
Semi major axis: 7253 km
RCS: 0.041 m2 (small)
Launch date: May 10, 1999
Source: People's Republic of China (PRC)
Launch site: Taiyaun Space Center, China (TSC)

Note: This is SATELLITE DEBRIS
aabbcc
Your satellite tracking list
Your tracking list is empty




NASA's NSSDC Master Catalog

Two Line Element Set (TLE):
1 30073U 99025QA  18050.46903698  .00000459  00000-0  30859-3 0  9993
2 30073  99.4481 224.0096 0063523 253.3892 165.9062 14.05195241567643
Source of the keplerian elements: AFSPC